カタログに戻る

STARLINK-5951

運用中通信VLEO
NORAD 56918·PAYLOAD·🇺🇸 United States

打ち上げ Jun 12, 2023 から Cape Canaveral Space Force Station

Loading…

次のパス (今後24時間)

TLE

最新Source: CelesTrak SupGP

元期: Sep 14, 2026, 21:07 UTC

1 56918C 23083AU  26257.88034722  .00026328  00000+0  95379-3 0  2574
2 56918  43.0013  82.0204 0001262 258.4654 143.7729 15.27559520    18

AllMySatでSTARLINK-5951をリアルタイム追跡

Download on the App Store